WA6MHA-11 Weather Reports


Display with metric or nautical units.
time (UTC)temp
F
wind
direction
speed
MPH
gust
MPH
rain 1hr
in
rain 24hr
in
rain mn
in
humidity
%
barometer
mb
20260903003509 85 180 2.0 7.0 0.00 0.00 0.00 20 1015.1
20260903003108 85 177 2.0 8.0 0.00 0.00 0.00 20 1015.1
20260903002707 85 145 3.0 8.0 0.00 0.00 0.00 20 1015.0
20260903002306 86 162 5.0 8.0 0.00 0.00 0.00 20 1015.0
20260903001904 86 180 5.0 7.0 0.00 0.00 0.00 19 1015.1
20260902235459 86 135 8.0 0.0 0.00 0.00 0.00 19 10.1
20260902235456 86 135 8.0 10.0 0.00 0.00 0.00 19 1015.2
20260902235057 87 186 7.0 7.0 0.00 0.00 0.00 19 1015.1
20260902234654 85 123 7.0 11.0 0.00 0.00 0.00 18 1015.2
20260902233444 88 135 8.0 8.0 0.00 0.00 0.00 19 1015.3
20260902233043 88 162 3.0 10.0 0.00 0.00 0.00 19 1015.3
20260902232240 89 135 10.0 11.0 0.00 0.00 0.00 18 1015.3
20260902231839 91 112 4.0 10.0 0.00 0.00 0.00 18 1015.4
20260902231438 92 186 5.0 8.0 0.00 0.00 0.00 18 1015.4
20260902231036 91 180 6.0 10.0 0.00 0.00 0.00 18 1015.4
20260902230635 91 139 7.0 10.0 0.00 0.00 0.00 18 1015.5
20260902230233 92 173 7.0 9.0 0.00 0.00 0.00 18 1015.5
20260902225834 93 155 4.0 10.0 0.00 0.00 0.00 18 1015.5
20260902225832 93 155 4.0 10.0 0.00 0.00 0.00 18 1015.5
20260902225431 93 177 6.0 9.0 0.00 0.00 0.00 17 1015.5
20260902225030 93 307 6.0 8.0 0.00 0.00 0.00 18 1015.5
20260902224629 93 200 7.0 8.0 0.00 0.00 0.00 18 1015.6
20260902224228 93 180 7.0 9.0 0.00 0.00 0.00 17 1015.6
20260902223825 93 162 5.0 12.0 0.00 0.00 0.00 18 1015.6
20260902223424 94 200 4.0 10.0 0.00 0.00 0.00 18 1015.8
20260902223025 94 191 9.0 10.0 0.00 0.00 0.00 18 1015.8
20260902221820 93 189 5.0 10.0 0.00 0.00 0.00 19 1015.9
20260902221420 93 108 4.0 9.0 0.00 0.00 0.00 19 1016.0
20260902221017 93 150 5.0 10.0 0.00 0.00 0.00 19 1016.1
20260902220617 93 182 4.0 10.0 0.00 0.00 0.00 19 1016.1
20260902220214 93 155 7.0 12.0 0.00 0.00 0.00 19 1016.1
20260902215815 93 172 9.0 9.0 0.00 0.00 0.00 19 1016.1
20260902215412 94 193 8.0 12.0 0.00 0.00 0.00 19 1016.2
20260902215010 93 301 3.0 9.0 0.00 0.00 0.00 19 1016.3
20260902214609 94 220 4.0 10.0 0.00 0.00 0.00 19 1016.3
20260902214208 93 186 3.0 12.0 0.00 0.00 0.00 19 1016.3
20260902213807 94 185 4.0 10.0 0.00 0.00 0.00 19 1016.3
20260902212602 93 128 3.0 11.0 0.00 0.00 0.00 19 1016.4
20260902211359 95 227 3.0 8.0 0.00 0.00 0.00 20 1016.5
20260902210958 95 192 5.0 9.0 0.00 0.00 0.00 20 1016.5
20260902210155 94 73 1.0 9.0 0.00 0.00 0.00 20 1016.6
20260902205754 95 305 4.0 8.0 0.00 0.00 0.00 21 1016.6
20260902205352 95 279 2.0 7.0 0.00 0.00 0.00 21 1016.7
20260902204550 94 202 0.0 4.0 0.00 0.00 0.00 21 1016.8
20260902203347 93 205 3.0 4.0 0.00 0.00 0.00 22 1016.8
20260902202945 93 182 3.0 4.0 0.00 0.00 0.00 22 1016.9
20260902202622 92 340 1.0 5.0 0.00 0.00 0.00 22 1016.9
20260902202142 90 137 4.0 8.0 0.00 0.00 0.00 22 1016.9
20260902201741 92 110 3.0 5.0 0.00 0.00 0.00 22 1017.0
20260902201339 92 99 3.0 8.0 0.00 0.00 0.00 23 1017.0
20260902200938 91 103 1.0 4.0 0.00 0.00 0.00 23 1017.1
20260902200136 88 189 6.0 6.0 0.00 0.00 0.00 23 1017.0
20260902195735 86 76 4.0 7.0 0.00 0.00 0.00 23 1017.1
20260902195334 86 128 6.0 8.0 0.00 0.00 0.00 23 1017.1
20260902194931 86 81 5.0 10.0 0.00 0.00 0.00 23 1017.3
20260902194530 87 182 3.0 10.0 0.00 0.00 0.00 23 1017.3
20260902194500 86 47 1.0 7.0 0.00 0.00 0.00 23 1017.4
20260902194129 86 47 1.0 7.0 0.00 0.00 0.00 23 1017.4
20260902193728 86 182 2.0 9.0 0.00 0.00 0.00 24 1017.4
20260902193327 87 132 3.0 9.0 0.00 0.00 0.00 24 1017.4
20260902192926 87 19 0.0 6.0 0.00 0.00 0.00 24 1017.4
20260902192524 86 137 6.0 9.0 0.00 0.00 0.00 24 1017.5
20260902192123 87 135 4.0 10.0 0.00 0.00 0.00 24 1017.6
20260902191320 90 180 3.0 7.0 0.00 0.00 0.00 24 1017.6
20260902190518 89 186 5.0 8.0 0.00 0.00 0.00 24 1017.6
20260902190116 87 67 2.0 7.0 0.00 0.00 0.00 24 1017.6
20260902185715 87 330 1.0 5.0 0.00 0.00 0.00 24 1017.7
20260902184913 86 155 6.0 7.0 0.00 0.00 0.00 25 1017.8
20260902184512 88 160 3.0 3.0 0.00 0.00 0.00 25 1017.8
20260902184110 87 99 0.0 6.0 0.00 0.00 0.00 25 1017.9
20260902183830 86 130 4.0 8.0 0.00 0.00 0.00 25 1017.9
20260902183709 86 130 4.0 8.0 0.00 0.00 0.00 25 1017.9
20260902182906 87 177 3.0 5.0 0.00 0.00 0.00 25 1017.9
20260902182720 84 99 6.0 8.0 0.00 0.00 0.00 26 1017.8
20260902182104 84 99 6.0 8.0 0.00 0.00 0.00 26 1017.8
20260902181301 84 141 7.0 9.0 0.00 0.00 0.00 26 1018.0
20260902180057 83 85 2.0 7.0 0.00 0.00 0.00 28 1017.9
20260902175656 83 85 2.0 9.0 0.00 0.00 0.00 28 1017.8
20260902175255 84 195 4.0 7.0 0.00 0.00 0.00 28 1017.9
20260902174853 82 117 4.0 9.0 0.00 0.00 0.00 29 1017.8
20260902174452 83 110 9.0 9.0 0.00 0.00 0.00 29 1017.7
20260902173650 80 110 3.0 10.0 0.00 0.00 0.00 30 1017.9
20260902173248 81 92 7.0 8.0 0.00 0.00 0.00 31 1017.8
20260902172445 83 182 2.0 5.0 0.00 0.00 0.00 31 1018.0
20260902171657 79 103 4.0 8.0 0.00 0.00 0.00 32 1018.0
20260902171650 79 137 5.0 6.0 0.00 0.00 0.00 32 1018.0
20260902171242 79 103 4.0 8.0 0.00 0.00 0.00 32 1018.0
20260902170841 79 85 4.0 6.0 0.00 0.00 0.00 33 1017.9
20260902170038 78 92 4.0 8.0 0.00 0.00 0.00 34 1017.9
20260902163229 78 157 2.0 7.0 0.00 0.00 0.00 37 1017.7
20260902162852 79 137 2.0 5.0 0.00 0.00 0.00 38 1017.8
20260902162829 79 114 3.0 7.0 0.00 0.00 0.00 58 1017.7
20260902162426 79 137 2.0 5.0 0.00 0.00 0.00 38 1017.8
20260902162026 79 180 5.0 5.0 0.00 0.00 0.00 39 1017.8
20260902161628 77 135 3.0 7.0 0.00 0.00 0.00 39 1017.9
20260902155546 76 331 1.0 3.0 0.00 0.00 0.00 42 1017.9
20260902155430 76 331 1.0 3.0 0.00 0.00 0.00 42 1017.9
20260902155216 76 331 1.0 3.0 0.00 0.00 0.00 42 1017.9
20260902154814 76 40 1.0 1.0 0.00 0.00 0.00 42 1017.9
20260902154750 73 315 0.0 2.0 0.00 0.00 0.00 44 1017.8
20260902153612 73 315 0.0 2.0 0.00 0.00 0.00 44 1017.8
20260902153210 72 324 0.0 2.0 0.00 0.00 0.00 44 1017.7
20260902152809 72 160 0.0 2.0 0.00 0.00 0.00 44 1017.7
20260902152407 71 42 0.0 1.0 0.00 0.00 0.00 44 1017.6
20260902151604 70 310 0.0 2.0 0.00 0.00 0.00 45 1017.7
20260902151205 70 22 1.0 1.0 0.00 0.00 0.00 45 1017.7
20260902150802 69 320 0.0 0.0 0.00 0.00 0.00 45 1017.7
20260902150401 68 317 0.0 0.0 0.00 0.00 0.00 46 1017.7
20260902145959 68 335 0.0 1.0 0.00 0.00 0.00 46 1017.8
20260902145558 67 299 0.0 0.0 0.00 0.00 0.00 46 1017.7
20260902145157 67 330 0.0 1.0 0.00 0.00 0.00 46 1017.7
20260902144756 67 319 0.0 1.0 0.00 0.00 0.00 47 1017.8
20260902144355 65 45 0.0 0.0 0.00 0.00 0.00 47 1017.8
20260902143953 64 42 0.0 0.0 0.00 0.00 0.00 47 1017.7
20260902143551 63 234 0.0 0.0 0.00 0.00 0.00 48 1017.7
20260902143150 62 231 0.0 0.0 0.00 0.00 0.00 48 1017.6
20260902142749 62 225 0.0 0.0 0.00 0.00 0.00 48 1017.7
20260902142348 60 279 0.0 0.0 0.00 0.00 0.00 48 1017.6
20260902141947 60 281 0.0 0.0 0.00 0.00 0.00 49 1017.6
20260902141146 58 310 0.0 0.0 0.00 0.00 0.00 49 1017.6
20260902140744 58 303 0.0 0.0 0.00 0.00 0.00 49 1.0
20260902140319 56 297 0.0 0.0 0.00 0.00 0.00 48 1017.3
20260902140303 56 306 0.0 0.0 0.00 0.00 0.00 48 1017.3
20260902135940 56 306 0.0 0.0 0.00 0.00 0.00 48 1017.3
20260902135539 56 297 0.0 0.0 0.00 0.00 0.00 48 1017.3
20260902135138 55 326 0.0 0.0 0.00 0.00 0.00 48 1017.2
20260902134909 55 292 0.0 0.0 0.00 0.00 0.00 48 1017.2
20260902134812 55 292 0.0 0.0 0.00 0.00 0.00 48 1017.2
20260902134736 55 292 0.0 0.0 0.00 0.00 0.00 48 1017.2
20260902134335 55 261 0.0 0.0 0.00 0.00 0.00 48 1017.2
20260902133934 55 237 0.0 1.0 0.00 0.00 0.00 48 1017.2
20260902133533 55 301 1.0 1.0 0.00 0.00 0.00 48 1017.2
20260902132730 55 283 0.0 0.0 0.00 0.00 0.00 48 1017.2
20260902132328 55 283 0.0 0.0 0.00 0.00 0.00 48 1017.2
20260902131125 55 283 1.0 1.0 0.00 0.00 0.00 48 1017.1
20260902130724 55 274 0.0 0.0 0.00 0.00 0.00 48 1017.1
20260902125519 55 279 0.0 0.0 0.00 0.00 0.00 47 1017.2
20260902125118 55 231 0.0 0.0 0.00 0.00 0.00 47 1017.2
20260902124717 55 274 0.0 1.0 0.00 0.00 0.00 47 1017.3
20260902124316 55 306 0.0 0.0 0.00 0.00 0.00 47 1017.3
20260902123915 56 339 0.0 1.0 0.00 0.00 0.00 47 1017.2
20260902123513 56 333 0.0 0.0 0.00 0.00 0.00 47 1017.2
20260902123112 56 290 0.0 0.0 0.00 0.00 0.00 47 1017.2
20260902121908 56 301 0.0 0.0 0.00 0.00 0.00 46 1017.3
20260902121105 56 306 0.0 0.0 0.00 0.00 0.00 46 1017.4
20260902120704 57 294 0.0 0.0 0.00 0.00 0.00 46 1017.4
20260902120303 57 236 0.0 0.0 0.00 0.00 0.00 46 1017.3
20260902115902 57 274 0.0 1.0 0.00 0.00 0.00 46 1017.3
20260902115501 57 276 1.0 1.0 0.00 0.00 0.00 46 1017.4
20260902115059 57 279 0.0 1.0 0.00 0.00 0.00 46 1017.4
20260902114657 57 283 0.0 0.0 0.00 0.00 0.00 46 1017.4
20260902114256 57 279 0.0 0.0 0.00 0.00 0.00 46 1017.4
20260902113902 57 288 0.0 1.0 0.00 0.00 0.00 46 1017.4
20260902113859 57 288 0.0 1.0 0.00 0.00 0.00 46 1017.4
20260902113454 57 283 1.0 1.0 0.00 0.00 0.00 46 1017.4
20260902113054 57 234 0.0 0.0 0.00 0.00 0.00 46 1017.4
20260902112652 57 235 0.0 0.0 0.00 0.00 0.00 46 1017.3
20260902111849 57 234 0.0 0.0 0.00 0.00 0.00 45 1017.2
20260902111448 57 288 0.0 0.0 0.00 0.00 0.00 45 1017.3
20260902111046 58 292 0.0 0.0 0.00 0.00 0.00 45 1017.3
20260902110739 58 283 0.0 0.0 0.00 0.00 0.00 45 1017.3
20260902110645 58 283 0.0 0.0 0.00 0.00 0.00 45 1017.3
20260902105845 57 283 0.0 0.0 0.00 0.00 0.00 45 1017.4
20260902105441 58 274 0.0 0.0 0.00 0.00 0.00 45 1017.3
20260902105040 58 315 0.0 1.0 0.00 0.00 0.00 45 1017.3
20260902104639 58 321 0.0 0.0 0.00 0.00 0.00 45 1017.2
20260902104238 58 255 0.0 1.0 0.00 0.00 0.00 45 1017.3
20260902103840 58 184 1.0 1.0 0.00 0.00 0.00 45 1017.2
20260902103434 58 184 0.0 0.0 0.00 0.00 0.00 45 1017.3
20260902103033 58 184 0.0 1.0 0.00 0.00 0.00 45 1017.3
20260902102632 58 231 0.0 1.0 0.00 0.00 0.00 45 1017.4
20260902102231 58 279 0.0 1.0 0.00 0.00 0.00 45 1017.4
20260902101831 58 279 0.0 0.0 0.00 0.00 0.00 45 1017.3
20260902101429 58 346 0.0 1.0 0.00 0.00 0.00 45 1017.3
20260902100630 57 40 0.0 1.0 0.00 0.00 0.00 45 1017.3
20260902100228 57 180 0.0 0.0 0.00 0.00 0.00 45 1017.2
20260902095823 57 236 0.0 1.0 0.00 0.00 0.00 45 1017.2
20260902095422 57 180 0.0 2.0 0.00 0.00 0.00 45 1017.2
20260902095023 56 42 1.0 1.0 0.00 0.00 0.00 45 1017.3
20260902094218 56 324 0.0 0.0 0.00 0.00 0.00 45 1017.3
20260902093416 56 279 1.0 1.0 0.00 0.00 0.00 45 1017.4
20260902092211 56 279 1.0 1.0 0.00 0.00 0.00 44 1017.4
20260902091810 56 279 1.0 1.0 0.00 0.00 0.00 44 1017.3
20260902091009 56 233 1.0 1.0 0.00 0.00 0.00 44 1017.3
20260902090607 56 301 0.0 0.0 0.00 0.00 0.00 44 1017.3
20260902085804 56 297 0.0 0.0 0.00 0.00 0.00 44 1017.4
20260902085402 56 279 0.0 0.0 0.00 0.00 0.00 44 1017.3
20260902085003 56 297 0.0 1.0 0.00 0.00 0.00 44 1017.3
20260902084159 57 230 0.0 0.0 0.00 0.00 0.00 44 1017.4
20260902083758 57 232 0.0 0.0 0.00 0.00 0.00 43 1017.4
20260902083357 57 232 0.0 0.0 0.00 0.00 0.00 43 1017.3
20260902082955 57 230 0.0 0.0 0.00 0.00 0.00 43 1017.4
20260902082554 57 274 0.0 0.0 0.00 0.00 0.00 43 1017.4
20260902082153 57 292 0.0 0.0 0.00 0.00 0.00 43 1017.3
20260902081350 57 279 0.0 0.0 0.00 0.00 0.00 43 1017.3
20260902080949 57 283 0.0 1.0 0.00 0.00 0.00 43 1017.3
20260902080547 57 290 0.0 0.0 0.00 0.00 0.00 43 1017.3
20260902080146 57 306 0.0 0.0 0.00 0.00 0.00 42 1017.2
20260902075745 57 38 0.0 0.0 0.00 0.00 0.00 42 1017.3
20260902075344 58 288 0.0 0.0 0.00 0.00 0.00 42 1017.3
20260902074942 58 279 0.0 0.0 0.00 0.00 0.00 42 1017.3
20260902074541 58 283 0.0 0.0 0.00 0.00 0.00 42 1017.2
20260902073337 58 346 1.0 1.0 0.00 0.00 0.00 42 1017.1
20260902072936 58 40 0.0 0.0 0.00 0.00 0.00 42 1017.1
20260902072535 58 230 0.0 0.0 0.00 0.00 0.00 42 1017.1
20260902072133 58 288 0.0 1.0 0.00 0.00 0.00 42 1017.0
20260902071732 58 274 0.0 0.0 0.00 0.00 0.00 42 1017.1
20260902071613 58 270 0.0 0.0 0.00 0.00 0.00 42 1017.0
20260902071331 58 274 0.0 0.0 0.00 0.00 0.00 42 1017.0
20260902070929 58 270 0.0 0.0 0.00 0.00 0.00 42 1017.0
20260902070528 58 283 0.0 0.0 0.00 0.00 0.00 41 1017.0
20260902070127 58 237 0.0 0.0 0.00 0.00 0.00 41 1017.0
20260902065725 59 227 0.0 0.0 0.00 0.00 0.00 41 1017.0
20260902065324 59 237 0.0 0.0 0.00 0.00 0.00 41 1016.9
20260902064924 59 290 0.0 0.0 0.00 0.00 0.00 41 1016.9
20260902064121 59 306 0.0 0.0 0.00 0.00 0.00 41 1016.8
20260902063317 59 310 0.0 0.0 0.00 0.00 0.00 41 1016.7
20260902062515 60 326 0.0 0.0 0.00 0.00 0.00 41 1016.7
20260902061713 60 292 0.0 0.0 0.00 0.00 0.00 40 1016.7
20260902061312 61 195 0.0 0.0 0.00 0.00 0.00 40 1016.7
20260902060910 61 189 0.0 1.0 0.00 0.00 0.00 40 1016.8
20260902060509 61 186 0.0 0.0 0.00 0.00 0.00 40 1016.7
20260902060107 61 279 0.0 0.0 0.00 0.00 0.00 40 1016.6
20260902055706 61 283 0.0 0.0 0.00 0.00 0.00 39 1016.6
20260902055307 61 279 0.0 1.0 0.00 0.00 0.00 39 1016.7
20260902054904 61 233 0.0 1.0 0.00 0.00 0.00 39 1016.6
20260902054101 62 279 1.0 1.0 0.00 0.00 0.00 39 1016.6
20260902053700 62 292 0.0 0.0 0.00 0.00 0.00 39 1016.6
20260902053259 62 274 0.0 0.0 0.00 0.00 0.00 38 1016.7
20260902052858 62 288 0.0 0.0 0.00 0.00 0.00 38 1016.6
20260902052456 62 38 0.0 0.0 0.00 0.00 0.00 38 1016.7
20260902052054 63 42 0.0 1.0 0.00 0.00 0.00 38 1016.6
20260902050049 64 312 0.0 0.0 0.00 0.00 0.00 37 1016.6
20260902045647 64 299 0.0 0.0 0.00 0.00 0.00 37 1016.6
20260902044844 64 315 0.0 0.0 0.00 0.00 0.00 36 1016.6
20260902044443 65 301 0.0 0.0 0.00 0.00 0.00 36 1016.5
20260902044042 65 274 0.0 0.0 0.00 0.00 0.00 36 1016.4
20260902043641 65 290 0.0 1.0 0.00 0.00 0.00 35 1016.3
20260902043239 66 182 1.0 1.0 0.00 0.00 0.00 35 1016.3
20260902042838 66 230 0.0 2.0 0.00 0.00 0.00 35 1016.3
20260902042437 66 279 0.0 1.0 0.00 0.00 0.00 35 1016.3
20260902042036 66 297 0.0 0.0 0.00 0.00 0.00 35 1016.2
20260902041236 67 301 0.0 0.0 0.00 0.00 0.00 34 1016.0
20260902040831 67 279 0.0 0.0 0.00 0.00 0.00 34 1016.0
20260902040430 67 270 0.0 0.0 0.00 0.00 0.00 34 1016.0
20260902040030 67 184 1.0 2.0 0.00 0.00 0.00 33 1015.9
20260902035628 67 76 1.0 2.0 0.00 0.00 0.00 33 1015.9
20260902034825 67 135 2.0 2.0 0.00 0.00 0.00 32 1015.7
20260902034424 67 92 1.0 2.0 0.00 0.00 0.00 32 1015.6
20260902034023 67 135 2.0 3.0 0.00 0.00 0.00 32 1015.6
20260902033220 68 83 4.0 4.0 0.00 0.00 0.00 31 1015.4
20260902032819 68 121 3.0 5.0 0.00 0.00 0.00 31 1015.4
20260902032419 0 78 3.0 0.0 0.00 0.00 0.00
20260902032020 69 83 3.0 3.0 0.00 0.00 0.00 30 1015.4
20260902030847 70 135 2.0 5.0 0.00 0.00 0.00 29 1015.3
20260902030812 70 135 2.0 5.0 0.00 0.00 0.00 29 1015.3
20260902030447 70 137 3.0 6.0 0.00 0.00 0.00 29 1015.3
20260902030411 70 137 3.0 6.0 0.00 0.00 0.00 29 1015.3
20260902030010 70 137 3.0 5.0 0.00 0.00 0.00 28 1015.3
20260902025608 70 121 3.0 7.0 0.00 0.00 0.00 28 1015.3
20260902024806 71 139 6.0 7.0 0.00 0.00 0.00 27 1015.1
20260902024405 72 123 5.0 6.0 0.00 0.00 0.00 26 1015.0
20260902023602 73 105 6.0 6.0 0.00 0.00 0.00 25 1014.9
20260902023200 73 128 5.0 7.0 0.00 0.00 0.00 24 1014.8
20260902022759 74 132 7.0 7.0 0.00 0.00 0.00 24 1014.8
20260902021957 75 117 4.0 6.0 0.00 0.00 0.00 23 1014.8
20260902021556 76 114 3.0 5.0 0.00 0.00 0.00 23 1014.7
20260902021155 76 101 2.0 4.0 0.00 0.00 0.00 22 1014.8
20260902020753 76 135 3.0 5.0 0.00 0.00 0.00 21 1014.7
20260902015543 79 153 3.0 5.0 0.00 0.00 0.00 20 1014.7
20260902014741 81 186 3.0 6.0 0.00 0.00 0.00 20 1014.6
20260902013938 82 182 3.0 9.0 0.00 0.00 0.00 19 1014.7
20260902013537 82 182 4.0 6.0 0.00 0.00 0.00 19 1014.7
20260902013136 82 167 3.0 6.0 0.00 0.00 0.00 18 1014.8
20260902012735 83 186 6.0 6.0 0.00 0.00 0.00 18 1014.8
20260902012333 83 184 5.0 7.0 0.00 0.00 0.00 18 1014.8
20260902011931 83 180 5.0 7.0 0.00 0.00 0.00 18 1014.7
20260902011534 83 130 2.0 5.0 0.00 0.00 0.00 18 1014.7
20260902011129 83 153 4.0 6.0 0.00 0.00 0.00 18 1014.8
20260902010728 83 189 5.0 6.0 0.00 0.00 0.00 18 1014.8
20260902010327 84 144 4.0 5.0 0.00 0.00 0.00 18 1014.9
20260902005925 83 139 5.0 8.0 0.00 0.00 0.00 18 1014.9
20260902005523 83 141 6.0 9.0 0.00 0.00 0.00 18 1014.9
20260902004721 84 130 8.0 8.0 0.00 0.00 0.00 17 1014.9
20260902004320 84 135 8.0 8.0 0.00 0.00 0.00 17 1015.0
20260902003920 84 135 7.0 9.0 0.00 0.00 0.00 17 1015.0